Powrót do katalogu

ATLAS 5 CENTAUR DEB

AktywnyHEO
NORAD 44003·DEBRIS·🇺🇸 United States

Wystrzelony Sep 17, 2014 z Cape Canaveral Space Force Station

Loading…

Następne Przeloty (najbliższe 24 godziny)

TLE

ŚwieżeSource: Space-Track

Epoka: Sep 11, 2026, 13:07 UTC

1 44003U 14055BJ  26254.54659166 -.00000038  00000-0  00000-0 0  9999
2 44003  19.4847 169.5423 4604077 121.8564 291.0869  1.81344941 53021

Śledź ATLAS 5 CENTAUR DEB w czasie rzeczywistym z AllMySat

Download on the App Store